Simultaneous Nadir Overpasses (SNOs) Predictions

Prediction of SNOs between METOP-A and TERRA Satellite Orbit:

Table of predicted SNOs for the next 14.0 days since TLE Epoch: 10/25/2014
Index Date (METOP-A) Time (METOP-A) Lat,Lon (METOP-A) SZA (METOP-A ) Date (TERRA) Time (TERRA) Lat,Lon (TERRA) SZA (TERRA ) Distance(km) Time Diff (sec)
1 10/26/2014 09:09:01 -81.29, -90.17 83.11 10/26/2014 09:09:29 -81.30, -90.30 83.11 2.22 28
2 10/26/2014 09:59:41 81.30, 77.58 96.96 10/26/2014 09:58:55 81.31, 77.45 96.92 2.30 46
3 10/29/2014 04:43:20 -81.29, -23.79 82.17 10/29/2014 04:43:40 -81.29, -23.97 82.18 3.01 20
4 10/29/2014 05:34:00 81.30, 143.92 97.90 10/29/2014 05:33:06 81.30, 143.75 97.85 2.95 54
5 11/01/2014 00:17:40 -81.29, 42.52 81.27 11/01/2014 00:17:51 -81.29, 42.46 81.27 0.99 11
6 11/01/2014 01:08:20 81.30,-149.82 98.79 11/01/2014 01:07:17 81.29,-149.86 98.75 0.81 63
7 11/03/2014 19:01:44 81.02, -68.05 98.38 11/03/2014 19:02:57 80.72, -66.84 98.31 39.69 73
8 11/03/2014 19:51:59 -81.30, 109.13 80.36 11/03/2014 19:52:01 -81.29, 108.97 80.38 2.65 2
9 11/03/2014 20:42:39 81.30, -83.25 99.69 11/03/2014 20:41:27 81.30, -83.38 99.64 2.19 72
10 11/06/2014 14:35:38 81.29, 7.60 100.41 11/06/2014 14:36:43 81.28, 7.57 100.43 0.62 65




NCC Satellite Simultaneous Nadir Overpasses (SNOs) Prediction Service
